Tracking 32139 objects as of 14-Nov-2025
HD Live streaming from Space Station
objects crossing your sky now

SOLRAD 7B

Track SOLRAD 7B now!
10-day predictions
SOLRAD 7B is classified as:


NORAD ID: 1291
Int'l Code: 1965-016D
Perigee: 904.6 km
Apogee: 932.5 km
Inclination: 70.1 °
Period: 103.2 minutes
Semi major axis: 7289 km
RCS: 0.5012 m2 (medium)
Launch date: March 9, 1965
Source: United States (US)
Launch site: AIR FORCE WESTERN TEST RANGE (AFWTR)
Your satellite tracking list
Your tracking list is empty




NASA's NSSDC Master Catalog

Two Line Element Set (TLE):
1 01291U 65016D   25318.21038676  .00000096  00000-0  10981-3 0  9990
2 01291  70.0794 333.3002 0019145  36.6516 323.5895 13.94940081 86720
Source of the keplerian elements: AFSPC